| time (UTC) | temp F | wind direction | speed knots | gust knots | rain 1hr in | rain 24hr in | rain mn in | humidity % | barometer mb |
| 20260509043647 | 55 | 338 | 0.0 | 0.0 | 0.00 | 0.01 | 0.01 | 99 | 1006.7 |
| 20260509043143 | 55 | 337 | 0.0 | 0.0 | 0.00 | 0.01 | 0.01 | 99 | 1006.6 |
| 20260509042640 | 55 | 342 | 0.0 | 0.0 | 0.00 | 0.01 | 0.01 | 99 | 1006.7 |
| 20260509042136 | 55 | 352 | 0.0 | 0.0 | 0.00 | 0.01 | 0.01 | 99 | 1006.6 |
| 20260509041632 | 55 | 341 | 0.0 | 0.0 | 0.07 | 0.01 | 0.01 | 99 | 1006.6 |
| 20260509041130 | 55 | 338 | 0.0 | 0.0 | 0.07 | 0.01 | 0.01 | 99 | 1006.7 |
| 20260509040628 | 55 | 344 | 0.0 | 0.0 | 0.05 | 0.00 | 0.00 | 99 | 1006.8 |
| 20260509040125 | 55 | 345 | 0.0 | 0.0 | 0.05 | 0.00 | 0.00 | 99 | 1006.9 |
| 20260509035622 | 55 | 344 | 0.0 | 0.0 | 0.00 | 0.02 | 0.02 | 98 | 1006.8 |
| 20260509035118 | 55 | 21 | 0.0 | 0.0 | 0.00 | 0.02 | 0.02 | 97 | 1006.8 |
| 20260509034616 | 55 | 342 | 0.0 | 0.0 | 0.00 | 0.02 | 0.02 | 97 | 1006.8 |
| 20260509034113 | 56 | 352 | 0.0 | 0.0 | 0.07 | 0.02 | 0.02 | 96 | 1006.9 |
| 20260509033610 | 56 | 319 | 0.0 | 0.0 | 0.07 | 0.02 | 0.02 | 95 | 1006.9 |
| 20260509033107 | 56 | 359 | 0.0 | 0.0 | 0.07 | 0.01 | 0.01 | 95 | 1007.0 |
| 20260509032604 | 56 | 316 | 0.0 | 0.9 | 0.07 | 0.01 | 0.01 | 94 | 1007.1 |
| 20260509032101 | 56 | 338 | 0.0 | 0.9 | 0.00 | 0.00 | 0.00 | 94 | 1007.1 |
| 20260509031559 | 56 | 342 | 0.0 | 0.9 | 0.00 | 0.00 | 0.00 | 93 | 1006.9 |
| 20260509031056 | 57 | 340 | 0.0 | 0.0 | 0.00 | 0.00 | 0.00 | 93 | 1007.0 |
| 20260509030554 | 57 | 309 | 0.0 | 0.9 | 0.00 | 0.00 | 0.00 | 92 | 1006.9 |
| 20260509030051 | 57 | 333 | 0.0 | 0.0 | 0.00 | 0.00 | 0.00 | 92 | 1007.1 |
| 20260509025547 | 57 | 333 | 0.9 | 2.6 | 0.00 | 0.00 | 0.00 | 91 | 1007.3 |
| 20260509025042 | 57 | 287 | 0.0 | 0.0 | 0.00 | 0.00 | 0.00 | 91 | 1007.3 |
| 20260509024539 | 57 | 356 | 0.0 | 0.0 | 0.00 | 0.00 | 0.00 | 90 | 1007.2 |
| 20260509024035 | 57 | 337 | 0.0 | 0.9 | 0.00 | 0.00 | 0.00 | 90 | 1007.3 |
| 20260509023533 | 57 | 303 | 0.0 | 0.9 | 0.00 | 0.00 | 0.00 | 89 | 1007.3 |
| 20260509023029 | 57 | 353 | 0.9 | 1.7 | 0.00 | 0.00 | 0.00 | 89 | 1007.2 |
| 20260509022526 | 57 | 307 | 0.9 | 2.6 | 0.00 | 0.00 | 0.00 | 90 | 1007.2 |
| 20260509022024 | 57 | 338 | 0.9 | 1.7 | 0.00 | 0.00 | 0.00 | 90 | 1007.2 |
| 20260509021521 | 57 | 14 | 0.9 | 1.7 | 0.00 | 0.00 | 0.00 | 91 | 1007.2 |
| 20260509021017 | 57 | 314 | 1.7 | 4.3 | 0.00 | 0.00 | 0.00 | 92 | 1007.1 |
| 20260509020516 | 57 | 339 | 0.9 | 1.7 | 0.00 | 0.00 | 0.00 | 92 | 1006.9 |
| 20260509020012 | 57 | 8 | 0.0 | 0.0 | 0.00 | 0.00 | 0.00 | 91 | 1006.9 |
| 20260509015512 | 57 | 9 | 0.0 | 0.0 | 0.00 | 0.00 | 0.00 | 91 | 1006.5 |
| 20260509015008 | 57 | 6 | 0.0 | 0.0 | 0.00 | 0.00 | 0.00 | 91 | 1006.6 |
| 20260509014505 | 57 | 9 | 0.0 | 0.0 | 0.00 | 0.00 | 0.00 | 90 | 1006.6 |
| 20260509014001 | 58 | 10 | 0.0 | 0.0 | 0.00 | 0.00 | 0.00 | 90 | 1006.6 |
| 20260509013458 | 58 | 4 | 0.0 | 0.0 | 0.00 | 0.00 | 0.00 | 88 | 1006.8 |
| 20260509012953 | 58 | 9 | 0.0 | 0.0 | 0.00 | 0.00 | 0.00 | 87 | 1006.5 |
| 20260509012450 | 59 | 9 | 0.0 | 0.0 | 0.00 | 0.00 | 0.00 | 86 | 1006.5 |
| 20260509011947 | 59 | 342 | 0.9 | 0.9 | 0.00 | 0.00 | 0.00 | 85 | 1006.6 |
| 20260509011445 | 59 | 331 | 0.0 | 0.0 | 0.00 | 0.00 | 0.00 | 84 | 1006.5 |
| 20260509010942 | 59 | 329 | 0.9 | 0.9 | 0.00 | 0.00 | 0.00 | 83 | 1006.5 |
| 20260509010440 | 59 | 356 | 0.0 | 1.7 | 0.00 | 0.00 | 0.00 | 84 | 1006.5 |
| 20260509005937 | 59 | 255 | 0.0 | 0.0 | 0.00 | 0.00 | 0.00 | 86 | 1006.6 |
| 20260509005435 | 58 | 67 | 0.0 | 0.9 | 0.00 | 0.00 | 0.00 | 86 | 1006.3 |
| 20260509004934 | 58 | 299 | 0.0 | 0.0 | 0.00 | 0.00 | 0.00 | 90 | 1006.4 |
| 20260509004431 | 58 | 241 | 0.0 | 0.0 | 0.00 | 0.00 | 0.00 | 92 | 1006.3 |
| 20260509003929 | 58 | 359 | 0.0 | 2.6 | 0.00 | 0.00 | 0.00 | 92 | 1005.9 |
| 20260509003427 | 58 | 8 | 0.0 | 0.0 | 0.00 | 0.00 | 0.00 | 90 | 1005.9 |
| 20260509002923 | 59 | 334 | 0.0 | 0.0 | 0.00 | 0.00 | 0.00 | 88 | 1005.8 |
| 20260509002422 | 60 | 348 | 0.0 | 0.0 | 0.00 | 0.00 | 0.00 | 87 | 1005.9 |
| 20260509001918 | 60 | 348 | 0.0 | 0.0 | 0.00 | 0.00 | 0.00 | 87 | 1005.7 |
| 20260509001414 | 60 | 20 | 0.0 | 0.0 | 0.00 | 0.00 | 0.00 | 86 | 1005.5 |
| 20260509000912 | 60 | 16 | 0.0 | 0.0 | 0.00 | 0.00 | 0.00 | 86 | 1005.7 |
| 20260509000410 | 60 | 16 | 0.0 | 0.0 | 0.00 | 0.00 | 0.00 | 85 | 1005.8 |
| 20260508235905 | 61 | 6 | 0.0 | 0.0 | 0.00 | 0.00 | 0.00 | 85 | 1006.0 |
| 20260508235403 | 61 | 5 | 0.0 | 0.0 | 0.00 | 0.00 | 0.00 | 84 | 1006.1 |
| 20260508234900 | 61 | 9 | 0.0 | 0.0 | 0.00 | 0.00 | 0.00 | 84 | 1005.8 |
| 20260508234356 | 62 | 7 | 0.0 | 0.0 | 0.00 | 0.00 | 0.00 | 82 | 1005.7 |
| 20260508233855 | 62 | 7 | 0.0 | 0.0 | 0.00 | 0.00 | 0.00 | 82 | 1005.7 |
| 20260508233354 | 62 | 17 | 0.0 | 0.0 | 0.00 | 0.00 | 0.00 | 82 | 1005.7 |
| 20260508232850 | 62 | 18 | 0.0 | 0.0 | 0.00 | 0.00 | 0.00 | 82 | 1005.6 |
| 20260508232346 | 62 | 351 | 0.0 | 0.0 | 0.00 | 0.00 | 0.00 | 81 | 1005.5 |
| 20260508231845 | 62 | 337 | 0.0 | 0.0 | 0.00 | 0.00 | 0.00 | 81 | 1005.9 |
| 20260508231341 | 63 | 23 | 0.0 | 0.0 | 0.00 | 0.00 | 0.00 | 77 | 1006.0 |
| 20260508230838 | 63 | 358 | 0.0 | 0.0 | 0.00 | 0.00 | 0.00 | 71 | 1005.8 |
| 20260508230334 | 63 | 8 | 0.0 | 0.0 | 0.00 | 0.00 | 0.00 | 71 | 1005.7 |
| 20260508225832 | 64 | 33 | 0.0 | 0.0 | 0.00 | 0.00 | 0.00 | 73 | 1005.8 |
| 20260508225328 | 64 | 34 | 0.0 | 0.0 | 0.00 | 0.00 | 0.00 | 71 | 1005.6 |
| 20260508224827 | 65 | 23 | 0.0 | 0.0 | 0.00 | 0.00 | 0.00 | 67 | 1005.6 |
| 20260508224324 | 66 | 23 | 0.0 | 0.0 | 0.00 | 0.00 | 0.00 | 62 | 1005.9 |
| 20260508223821 | 66 | 26 | 0.0 | 0.9 | 0.00 | 0.00 | 0.00 | 61 | 1005.5 |
| 20260508223318 | 67 | 339 | 0.0 | 0.0 | 0.00 | 0.00 | 0.00 | 57 | 1005.4 |
| 20260508222816 | 67 | 353 | 0.0 | 0.0 | 0.00 | 0.00 | 0.00 | 53 | 1005.6 |
| 20260508222313 | 67 | 331 | 0.0 | 1.7 | 0.00 | 0.00 | 0.00 | 53 | 1005.7 |
| 20260508221809 | 68 | 323 | 0.9 | 1.7 | 0.00 | 0.00 | 0.00 | 52 | 1005.5 |
| 20260508221305 | 68 | 308 | 0.0 | 0.0 | 0.00 | 0.00 | 0.00 | 52 | 1005.6 |
| 20260508220801 | 68 | 241 | 0.0 | 1.7 | 0.00 | 0.00 | 0.00 | 51 | 1005.7 |
| 20260508220258 | 68 | 3 | 0.0 | 1.7 | 0.00 | 0.00 | 0.00 | 53 | 1005.7 |
| 20260508215754 | 68 | 246 | 0.0 | 0.0 | 0.00 | 0.00 | 0.00 | 51 | 1005.6 |
| 20260508215251 | 68 | 280 | 0.0 | 0.0 | 0.00 | 0.00 | 0.00 | 52 | 1005.7 |
| 20260508214749 | 68 | 215 | 0.9 | 1.7 | 0.00 | 0.00 | 0.00 | 52 | 1005.6 |
| 20260508214245 | 68 | 295 | 0.0 | 0.0 | 0.00 | 0.00 | 0.00 | 52 | 1005.6 |
| 20260508213742 | 68 | 183 | 0.0 | 0.0 | 0.00 | 0.00 | 0.00 | 50 | 1005.6 |
| 20260508213238 | 68 | 244 | 0.0 | 1.7 | 0.00 | 0.00 | 0.00 | 51 | 1005.5 |
| 20260508212729 | 68 | 256 | 0.0 | 2.6 | 0.00 | 0.00 | 0.00 | 50 | 1005.5 |
| 20260508212226 | 69 | 222 | 0.9 | 1.7 | 0.00 | 0.00 | 0.00 | 49 | 1005.7 |
| 20260508211721 | 69 | 354 | 0.0 | 1.7 | 0.00 | 0.00 | 0.00 | 49 | 1005.6 |
| 20260508211217 | 69 | 245 | 1.7 | 2.6 | 0.00 | 0.00 | 0.00 | 49 | 1005.5 |
| 20260508210715 | 69 | 180 | 0.9 | 4.3 | 0.00 | 0.00 | 0.00 | 48 | 1005.9 |
| 20260508210212 | 69 | 225 | 0.0 | 4.3 | 0.00 | 0.00 | 0.00 | 49 | 1005.7 |
| 20260508205709 | 68 | 239 | 2.6 | 6.1 | 0.00 | 0.00 | 0.00 | 48 | 1005.9 |
| 20260508205205 | 68 | 182 | 1.7 | 2.6 | 0.00 | 0.00 | 0.00 | 48 | 1005.7 |
| 20260508204701 | 68 | 354 | 0.0 | 6.1 | 0.00 | 0.00 | 0.00 | 48 | 1005.9 |
| 20260508204157 | 68 | 200 | 2.6 | 4.3 | 0.00 | 0.00 | 0.00 | 47 | 1005.9 |
| 20260508203654 | 68 | 221 | 2.6 | 5.2 | 0.00 | 0.00 | 0.00 | 48 | 1006.2 |
| 20260508203150 | 69 | 225 | 4.3 | 6.1 | 0.00 | 0.00 | 0.00 | 47 | 1006.3 |
| 20260508202646 | 69 | 217 | 0.0 | 2.6 | 0.00 | 0.00 | 0.00 | 49 | 1006.4 |
| 20260508202144 | 69 | 205 | 0.9 | 2.6 | 0.00 | 0.00 | 0.00 | 47 | 1006.5 |
| 20260508201640 | 69 | 302 | 0.0 | 7.8 | 0.00 | 0.00 | 0.00 | 49 | 1006.6 |
| 20260508201137 | 69 | 179 | 0.9 | 1.7 | 0.00 | 0.00 | 0.00 | 48 | 1006.6 |
| 20260508200634 | 69 | 215 | 0.0 | 0.9 | 0.00 | 0.00 | 0.00 | 47 | 1006.4 |
| 20260508200130 | 69 | 286 | 1.7 | 4.3 | 0.00 | 0.00 | 0.00 | 48 | 1006.7 |
| 20260508195627 | 69 | 227 | 1.7 | 2.6 | 0.00 | 0.00 | 0.00 | 47 | 1006.8 |
| 20260508195123 | 69 | 213 | 0.9 | 1.7 | 0.00 | 0.00 | 0.00 | 47 | 1006.8 |
| 20260508194620 | 68 | 222 | 1.7 | 4.3 | 0.00 | 0.00 | 0.00 | 47 | 1006.8 |
| 20260508194117 | 69 | 183 | 1.7 | 2.6 | 0.00 | 0.00 | 0.00 | 48 | 1007.0 |
| 20260508193614 | 69 | 283 | 1.7 | 4.3 | 0.00 | 0.00 | 0.00 | 47 | 1006.9 |
| 20260508193110 | 69 | 353 | 0.0 | 1.7 | 0.00 | 0.00 | 0.00 | 46 | 1006.9 |
| 20260508192607 | 69 | 123 | 0.0 | 1.7 | 0.00 | 0.00 | 0.00 | 46 | 1006.9 |
| 20260508192104 | 69 | 118 | 0.0 | 4.3 | 0.00 | 0.00 | 0.00 | 45 | 1006.9 |
| 20260508191601 | 69 | 222 | 2.6 | 5.2 | 0.00 | 0.00 | 0.00 | 45 | 1006.9 |
| 20260508191058 | 70 | 310 | 0.0 | 2.6 | 0.00 | 0.00 | 0.00 | 46 | 1007.1 |
| 20260508190555 | 71 | 189 | 0.0 | 8.7 | 0.00 | 0.00 | 0.00 | 47 | 1007.0 |
| 20260508190051 | 71 | 176 | 0.0 | 4.3 | 0.00 | 0.00 | 0.00 | 45 | 1007.0 |
| 20260508185549 | 71 | 194 | 4.3 | 6.1 | 0.00 | 0.00 | 0.00 | 46 | 1007.0 |
| 20260508185046 | 70 | 291 | 0.0 | 8.7 | 0.00 | 0.00 | 0.00 | 46 | 1007.1 |
| 20260508184543 | 71 | 100 | 0.9 | 5.2 | 0.00 | 0.00 | 0.00 | 46 | 1007.3 |
| 20260508184040 | 71 | 192 | 1.7 | 4.3 | 0.00 | 0.00 | 0.00 | 47 | 1007.4 |
| 20260508183536 | 71 | 204 | 0.0 | 4.3 | 0.00 | 0.00 | 0.00 | 47 | 1007.3 |
| 20260508183032 | 71 | 199 | 6.1 | 8.7 | 0.00 | 0.00 | 0.00 | 46 | 1007.7 |
| 20260508182529 | 71 | 246 | 1.7 | 11.3 | 0.00 | 0.00 | 0.00 | 48 | 1007.5 |
| 20260508182026 | 70 | 235 | 2.6 | 8.7 | 0.00 | 0.00 | 0.00 | 47 | 1007.9 |
| 20260508181521 | 70 | 304 | 0.9 | 5.2 | 0.00 | 0.00 | 0.00 | 48 | 1007.9 |
| 20260508181019 | 70 | 218 | 7.8 | 8.7 | 0.00 | 0.00 | 0.00 | 45 | 1007.9 |
| 20260508180515 | 69 | 220 | 3.5 | 9.6 | 0.00 | 0.00 | 0.00 | 46 | 1008.1 |
| 20260508180012 | 70 | 223 | 3.5 | 4.3 | 0.00 | 0.00 | 0.00 | 50 | 1008.2 |
| 20260508175508 | 70 | 258 | 0.0 | 1.7 | 0.00 | 0.00 | 0.00 | 51 | 1008.3 |
| 20260508175006 | 69 | 191 | 0.9 | 5.2 | 0.00 | 0.00 | 0.00 | 49 | 1008.5 |
| 20260508174503 | 69 | 201 | 2.6 | 12.2 | 0.00 | 0.00 | 0.00 | 49 | 1008.6 |
| 20260508174000 | 71 | 219 | 3.5 | 6.1 | 0.00 | 0.00 | 0.00 | 47 | 1008.6 |
| 20260508173457 | 70 | 152 | 0.9 | 6.1 | 0.00 | 0.00 | 0.00 | 48 | 1008.7 |
| 20260508172953 | 68 | 284 | 0.0 | 1.7 | 0.00 | 0.00 | 0.00 | 52 | 1008.6 |
| 20260508172450 | 68 | 190 | 2.6 | 6.1 | 0.00 | 0.00 | 0.00 | 50 | 1009.0 |
| 20260508171946 | 68 | 228 | 7.8 | 8.7 | 0.00 | 0.00 | 0.00 | 49 | 1009.0 |
| 20260508171443 | 68 | 214 | 0.9 | 5.2 | 0.00 | 0.00 | 0.00 | 51 | 1009.0 |
| 20260508170939 | 68 | 335 | 0.0 | 2.6 | 0.00 | 0.00 | 0.00 | 50 | 1009.2 |
| 20260508170437 | 68 | 210 | 4.3 | 8.7 | 0.00 | 0.00 | 0.00 | 49 | 1009.0 |
| 20260508165933 | 68 | 296 | 0.0 | 4.3 | 0.00 | 0.00 | 0.00 | 51 | 1009.1 |
| 20260508165432 | 68 | 210 | 6.1 | 11.3 | 0.00 | 0.00 | 0.00 | 48 | 1009.2 |
| 20260508164927 | 70 | 347 | 0.9 | 2.6 | 0.00 | 0.00 | 0.00 | 50 | 1009.3 |
| 20260508164424 | 69 | 311 | 0.0 | 6.1 | 0.00 | 0.00 | 0.00 | 50 | 1009.5 |
| 20260508163922 | 69 | 201 | 4.3 | 7.0 | 0.00 | 0.00 | 0.00 | 49 | 1009.4 |
| 20260508163419 | 69 | 302 | 0.0 | 6.1 | 0.00 | 0.00 | 0.00 | 50 | 1009.7 |
| 20260508162914 | 68 | 240 | 4.3 | 8.7 | 0.00 | 0.00 | 0.00 | 50 | 1009.8 |
| 20260508162412 | 68 | 185 | 2.6 | 8.7 | 0.00 | 0.00 | 0.00 | 50 | 1009.7 |
| 20260508161909 | 67 | 193 | 5.2 | 8.7 | 0.00 | 0.00 | 0.00 | 50 | 1010.0 |
| 20260508161406 | 69 | 185 | 7.8 | 12.2 | 0.00 | 0.00 | 0.00 | 49 | 1010.0 |
| 20260508160903 | 68 | 249 | 2.6 | 5.2 | 0.00 | 0.00 | 0.00 | 50 | 1010.0 |
| 20260508160403 | 68 | 219 | 5.2 | 7.8 | 0.00 | 0.00 | 0.00 | 51 | 1010.0 |
| 20260508155858 | 67 | 209 | 4.3 | 9.6 | 0.00 | 0.00 | 0.00 | 51 | 1009.9 |
| 20260508155355 | 66 | 238 | 0.9 | 5.2 | 0.00 | 0.00 | 0.00 | 51 | 1010.1 |
| 20260508154852 | 67 | 141 | 3.5 | 6.1 | 0.00 | 0.00 | 0.00 | 51 | 1010.2 |
| 20260508154350 | 66 | 203 | 5.2 | 9.6 | 0.00 | 0.00 | 0.00 | 51 | 1010.1 |
| 20260508153846 | 66 | 222 | 7.8 | 8.7 | 0.00 | 0.00 | 0.00 | 51 | 1010.4 |
| 20260508153343 | 66 | 134 | 0.0 | 7.8 | 0.00 | 0.00 | 0.00 | 53 | 1010.4 |
| 20260508152839 | 66 | 172 | 2.6 | 8.7 | 0.00 | 0.00 | 0.00 | 53 | 1010.4 |
| 20260508152336 | 65 | 234 | 6.1 | 7.0 | 0.00 | 0.00 | 0.00 | 54 | 1010.4 |
| 20260508151832 | 64 | 194 | 2.6 | 7.0 | 0.00 | 0.00 | 0.00 | 56 | 1010.4 |
| 20260508151330 | 64 | 182 | 3.5 | 9.6 | 0.00 | 0.00 | 0.00 | 56 | 1010.5 |
| 20260508150826 | 64 | 193 | 3.5 | 7.8 | 0.00 | 0.00 | 0.00 | 56 | 1010.5 |
| 20260508150322 | 64 | 192 | 4.3 | 8.7 | 0.00 | 0.00 | 0.00 | 56 | 1010.4 |
| 20260508145819 | 63 | 165 | 1.7 | 7.0 | 0.00 | 0.00 | 0.00 | 57 | 1010.3 |
| 20260508145315 | 63 | 215 | 5.2 | 7.0 | 0.00 | 0.00 | 0.00 | 56 | 1010.4 |
| 20260508144812 | 62 | 227 | 1.7 | 5.2 | 0.00 | 0.00 | 0.00 | 58 | 1010.7 |
| 20260508144310 | 63 | 222 | 3.5 | 9.6 | 0.00 | 0.00 | 0.00 | 58 | 1010.6 |
| 20260508143807 | 63 | 177 | 4.3 | 6.1 | 0.00 | 0.00 | 0.00 | 57 | 1010.6 |
| 20260508143304 | 62 | 188 | 0.0 | 6.1 | 0.00 | 0.00 | 0.00 | 57 | 1010.8 |
| 20260508142801 | 63 | 260 | 1.7 | 2.6 | 0.00 | 0.00 | 0.00 | 56 | 1010.6 |
| 20260508142257 | 62 | 199 | 2.6 | 2.6 | 0.00 | 0.00 | 0.00 | 57 | 1011.0 |
| 20260508141754 | 62 | 223 | 4.3 | 7.8 | 0.00 | 0.00 | 0.00 | 56 | 1011.0 |
| 20260508141251 | 61 | 226 | 0.0 | 2.6 | 0.00 | 0.00 | 0.00 | 58 | 1010.8 |
| 20260508140749 | 61 | 318 | 0.0 | 6.1 | 0.00 | 0.00 | 0.00 | 59 | 1011.1 |
| 20260508140245 | 60 | 170 | 2.6 | 5.2 | 0.00 | 0.00 | 0.00 | 59 | 1011.1 |
| 20260508135741 | 60 | 217 | 2.6 | 7.0 | 0.00 | 0.00 | 0.00 | 59 | 1011.0 |
| 20260508135237 | 59 | 240 | 4.3 | 6.1 | 0.00 | 0.00 | 0.00 | 59 | 1011.1 |
| 20260508134733 | 58 | 174 | 4.3 | 6.1 | 0.00 | 0.00 | 0.00 | 61 | 1011.1 |
| 20260508134231 | 58 | 194 | 4.3 | 5.2 | 0.00 | 0.00 | 0.00 | 61 | 1011.1 |
| 20260508133727 | 57 | 214 | 3.5 | 5.2 | 0.00 | 0.00 | 0.00 | 62 | 1011.1 |
| 20260508133225 | 57 | 193 | 0.9 | 1.7 | 0.00 | 0.00 | 0.00 | 63 | 1011.1 |
| 20260508132722 | 56 | 185 | 2.6 | 5.2 | 0.00 | 0.00 | 0.00 | 64 | 1011.0 |
| 20260508132220 | 55 | 218 | 2.6 | 4.3 | 0.00 | 0.00 | 0.00 | 66 | 1011.2 |
| 20260508131715 | 55 | 217 | 3.5 | 5.2 | 0.00 | 0.00 | 0.00 | 66 | 1011.1 |
| 20260508131212 | 54 | 181 | 2.6 | 5.2 | 0.00 | 0.00 | 0.00 | 68 | 1011.2 |
| 20260508130709 | 54 | 170 | 2.6 | 4.3 | 0.00 | 0.00 | 0.00 | 67 | 1011.3 |
| 20260508130206 | 54 | 244 | 2.6 | 2.6 | 0.00 | 0.00 | 0.00 | 68 | 1011.2 |
| 20260508125701 | 53 | 187 | 2.6 | 2.6 | 0.00 | 0.00 | 0.00 | 67 | 1011.2 |
| 20260508125158 | 54 | 170 | 2.6 | 4.3 | 0.00 | 0.00 | 0.00 | 67 | 1011.1 |
| 20260508124656 | 53 | 194 | 2.6 | 6.1 | 0.00 | 0.00 | 0.00 | 68 | 1011.2 |
| 20260508124153 | 53 | 190 | 0.0 | 4.3 | 0.00 | 0.00 | 0.00 | 69 | 1011.3 |
| 20260508123651 | 53 | 202 | 0.0 | 7.0 | 0.00 | 0.00 | 0.00 | 68 | 1011.0 |
| 20260508123149 | 53 | 184 | 2.6 | 5.2 | 0.00 | 0.00 | 0.00 | 68 | 1010.9 |
| 20260508122644 | 53 | 222 | 0.9 | 5.2 | 0.00 | 0.00 | 0.00 | 68 | 1011.1 |
| 20260508122141 | 52 | 210 | 1.7 | 4.3 | 0.00 | 0.00 | 0.00 | 69 | 1011.0 |
| 20260508121640 | 52 | 179 | 2.6 | 2.6 | 0.00 | 0.00 | 0.00 | 70 | 1011.0 |
| 20260508121138 | 51 | 206 | 1.7 | 2.6 | 0.00 | 0.00 | 0.00 | 71 | 1011.2 |
| 20260508120635 | 51 | 169 | 0.9 | 2.6 | 0.00 | 0.00 | 0.00 | 72 | 1011.0 |
| 20260508120133 | 51 | 168 | 1.7 | 4.3 | 0.00 | 0.00 | 0.00 | 73 | 1011.1 |
| 20260508115630 | 51 | 172 | 1.7 | 1.7 | 0.00 | 0.00 | 0.00 | 73 | 1011.2 |
| 20260508115127 | 50 | 173 | 1.7 | 2.6 | 0.00 | 0.00 | 0.00 | 75 | 1011.0 |
| 20260508114624 | 50 | 188 | 2.6 | 4.3 | 0.00 | 0.00 | 0.00 | 75 | 1011.0 |
| 20260508114120 | 49 | 202 | 1.7 | 2.6 | 0.00 | 0.00 | 0.00 | 76 | 1010.9 |
| 20260508113617 | 49 | 166 | 3.5 | 4.3 | 0.00 | 0.00 | 0.00 | 76 | 1010.9 |
| 20260508113116 | 49 | 208 | 2.6 | 4.3 | 0.00 | 0.00 | 0.00 | 75 | 1010.7 |
| 20260508112611 | 49 | 149 | 1.7 | 1.7 | 0.00 | 0.00 | 0.00 | 76 | 1010.8 |
| 20260508112108 | 49 | 220 | 2.6 | 2.6 | 0.00 | 0.00 | 0.00 | 76 | 1010.6 |
| 20260508111605 | 49 | 199 | 2.6 | 2.6 | 0.00 | 0.00 | 0.00 | 76 | 1010.6 |
| 20260508111102 | 48 | 172 | 1.7 | 4.3 | 0.00 | 0.00 | 0.00 | 76 | 1010.7 |
| 20260508110601 | 48 | 209 | 1.7 | 2.6 | 0.00 | 0.00 | 0.00 | 77 | 1010.4 |
| 20260508110056 | 48 | 194 | 1.7 | 1.7 | 0.00 | 0.00 | 0.00 | 77 | 1010.4 |
| 20260508105551 | 48 | 172 | 2.6 | 2.6 | 0.00 | 0.00 | 0.00 | 77 | 1010.5 |
| 20260508105049 | 48 | 164 | 1.7 | 2.6 | 0.00 | 0.00 | 0.00 | 77 | 1010.2 |
| 20260508104546 | 48 | 186 | 0.9 | 1.7 | 0.00 | 0.00 | 0.00 | 78 | 1010.5 |
| 20260508104042 | 48 | 202 | 2.6 | 2.6 | 0.00 | 0.00 | 0.00 | 78 | 1010.7 |
| 20260508103540 | 48 | 224 | 0.9 | 1.7 | 0.00 | 0.00 | 0.00 | 78 | 1010.4 |
| 20260508103037 | 48 | 155 | 0.9 | 2.6 | 0.00 | 0.00 | 0.00 | 78 | 1010.5 |
| 20260508102534 | 48 | 188 | 0.9 | 1.7 | 0.00 | 0.00 | 0.00 | 78 | 1010.5 |
| 20260508102032 | 48 | 153 | 0.9 | 1.7 | 0.00 | 0.00 | 0.00 | 78 | 1010.3 |
| 20260508101529 | 48 | 179 | 0.9 | 1.7 | 0.00 | 0.00 | 0.00 | 78 | 1010.4 |
| 20260508101026 | 48 | 242 | 0.0 | 0.9 | 0.00 | 0.00 | 0.00 | 78 | 1010.6 |
| 20260508100525 | 48 | 200 | 0.9 | 2.6 | 0.00 | 0.00 | 0.00 | 78 | 1010.5 |
| 20260508100021 | 48 | 195 | 0.9 | 0.9 | 0.00 | 0.00 | 0.00 | 78 | 1010.5 |
| 20260508095518 | 48 | 216 | 0.0 | 0.9 | 0.00 | 0.00 | 0.00 | 78 | 1010.5 |
| 20260508095015 | 47 | 161 | 0.0 | 1.7 | 0.00 | 0.00 | 0.00 | 79 | 1010.4 |
| 20260508094512 | 47 | 208 | 0.9 | 1.7 | 0.00 | 0.00 | 0.00 | 80 | 1010.4 |
| 20260508094009 | 47 | 134 | 0.0 | 0.0 | 0.00 | 0.00 | 0.00 | 81 | 1010.5 |
| 20260508093506 | 47 | 159 | 0.0 | 0.0 | 0.00 | 0.00 | 0.00 | 81 | 1010.5 |
| 20260508093004 | 47 | 106 | 0.0 | 0.0 | 0.00 | 0.00 | 0.00 | 81 | 1010.6 |
| 20260508092501 | 47 | 87 | 0.0 | 0.0 | 0.00 | 0.00 | 0.00 | 81 | 1010.4 |
| 20260508092000 | 47 | 112 | 0.0 | 0.0 | 0.00 | 0.00 | 0.00 | 80 | 1010.5 |
| 20260508091456 | 47 | 69 | 0.0 | 0.0 | 0.00 | 0.00 | 0.00 | 81 | 1010.5 |
| 20260508090953 | 46 | 44 | 0.0 | 0.0 | 0.00 | 0.00 | 0.00 | 82 | 1010.6 |
| 20260508090452 | 46 | 107 | 0.0 | 0.9 | 0.00 | 0.00 | 0.00 | 82 | 1010.6 |
| 20260508085947 | 46 | 134 | 0.0 | 0.9 | 0.00 | 0.00 | 0.00 | 83 | 1010.8 |
| 20260508085444 | 46 | 132 | 0.0 | 0.0 | 0.00 | 0.00 | 0.00 | 84 | 1010.7 |
| 20260508084941 | 46 | 31 | 0.0 | 0.0 | 0.00 | 0.00 | 0.00 | 85 | 1010.7 |
| 20260508084438 | 45 | 14 | 0.0 | 0.0 | 0.00 | 0.00 | 0.00 | 84 | 1010.7 |
| 20260508083936 | 46 | 15 | 0.0 | 0.0 | 0.00 | 0.00 | 0.00 | 84 | 1010.8 |
| 20260508083433 | 46 | 14 | 0.0 | 0.0 | 0.00 | 0.00 | 0.00 | 84 | 1010.5 |
| 20260508082933 | 46 | 16 | 0.9 | 0.9 | 0.00 | 0.00 | 0.00 | 83 | 1010.7 |
| 20260508082430 | 46 | 8 | 0.0 | 0.0 | 0.00 | 0.00 | 0.00 | 80 | 1010.6 |
| 20260508081928 | 46 | 8 | 0.0 | 0.0 | 0.00 | 0.00 | 0.00 | 80 | 1010.6 |
| 20260508081425 | 46 | 356 | 0.0 | 0.0 | 0.00 | 0.00 | 0.00 | 80 | 1010.5 |
| 20260508080921 | 46 | 295 | 0.0 | 0.0 | 0.00 | 0.00 | 0.00 | 80 | 1010.7 |
| 20260508080419 | 46 | 28 | 0.0 | 0.0 | 0.00 | 0.00 | 0.00 | 79 | 1010.4 |
| 20260508075915 | 47 | 219 | 1.7 | 2.6 | 0.00 | 0.00 | 0.00 | 79 | 1010.5 |
| 20260508075413 | 47 | 293 | 0.0 | 0.9 | 0.00 | 0.00 | 0.00 | 79 | 1010.3 |
| 20260508074911 | 47 | 178 | 0.9 | 1.7 | 0.00 | 0.00 | 0.00 | 79 | 1010.2 |
| 20260508074408 | 47 | 156 | 0.0 | 0.9 | 0.00 | 0.00 | 0.00 | 79 | 1010.5 |
| 20260508073904 | 47 | 183 | 0.0 | 0.9 | 0.00 | 0.00 | 0.00 | 78 | 1010.4 |
| 20260508073402 | 47 | 196 | 0.9 | 1.7 | 0.00 | 0.00 | 0.00 | 78 | 1010.4 |
| 20260508072858 | 47 | 199 | 0.0 | 1.7 | 0.00 | 0.00 | 0.00 | 78 | 1010.4 |
| 20260508072355 | 47 | 189 | 0.0 | 0.9 | 0.00 | 0.00 | 0.00 | 79 | 1010.4 |
| 20260508071852 | 47 | 171 | 0.9 | 1.7 | 0.00 | 0.00 | 0.00 | 79 | 1010.5 |
| 20260508071351 | 47 | 186 | 0.0 | 0.9 | 0.00 | 0.00 | 0.00 | 79 | 1010.3 |
| 20260508070848 | 47 | 171 | 0.9 | 1.7 | 0.00 | 0.00 | 0.00 | 79 | 1010.5 |
| 20260508070346 | 46 | 157 | 0.0 | 0.9 | 0.00 | 0.00 | 0.00 | 79 | 1010.7 |
| 20260508065843 | 47 | 98 | 0.0 | 0.0 | 0.00 | 0.00 | 0.00 | 79 | 1010.7 |
| 20260508065341 | 47 | 228 | 0.9 | 0.9 | 0.00 | 0.00 | 0.00 | 79 | 1010.8 |
| 20260508064839 | 47 | 282 | 0.0 | 1.7 | 0.00 | 0.00 | 0.00 | 78 | 1010.8 |
| 20260508064336 | 47 | 93 | 0.0 | 1.7 | 0.00 | 0.00 | 0.00 | 78 | 1010.8 |
| 20260508063834 | 47 | 138 | 0.0 | 1.7 | 0.00 | 0.00 | 0.00 | 78 | 1010.6 |
| 20260508063331 | 47 | 126 | 0.9 | 1.7 | 0.00 | 0.00 | 0.00 | 78 | 1011.0 |
| 20260508062828 | 47 | 159 | 0.9 | 2.6 | 0.00 | 0.00 | 0.00 | 78 | 1011.0 |
| 20260508062326 | 47 | 122 | 0.0 | 0.9 | 0.00 | 0.00 | 0.00 | 78 | 1011.3 |
| 20260508061823 | 47 | 131 | 0.0 | 1.7 | 0.00 | 0.00 | 0.00 | 78 | 1011.1 |
| 20260508061320 | 47 | 121 | 0.0 | 0.0 | 0.00 | 0.00 | 0.00 | 78 | 1011.1 |
| 20260508060816 | 47 | 125 | 0.0 | 0.9 | 0.00 | 0.00 | 0.00 | 78 | 1011.1 |
| 20260508060314 | 47 | 143 | 0.0 | 0.0 | 0.00 | 0.00 | 0.00 | 78 | 1011.2 |
| 20260508055809 | 46 | 85 | 0.0 | 0.0 | 0.00 | 0.00 | 0.00 | 79 | 1011.4 |
| 20260508055307 | 46 | 85 | 0.0 | 0.0 | 0.00 | 0.00 | 0.00 | 79 | 1011.1 |
| 20260508054803 | 46 | 123 | 0.0 | 0.0 | 0.00 | 0.00 | 0.00 | 80 | 1011.1 |
| 20260508054301 | 45 | 47 | 0.0 | 0.0 | 0.00 | 0.00 | 0.00 | 81 | 1011.3 |
| 20260508053757 | 45 | 42 | 0.0 | 0.0 | 0.00 | 0.00 | 0.00 | 83 | 1011.2 |
| 20260508053255 | 45 | 27 | 0.0 | 0.0 | 0.00 | 0.00 | 0.00 | 82 | 1011.4 |
| 20260508052752 | 46 | 46 | 0.0 | 0.0 | 0.00 | 0.00 | 0.00 | 82 | 1011.2 |
| 20260508052249 | 46 | 54 | 0.0 | 0.0 | 0.00 | 0.00 | 0.00 | 81 | 1011.3 |
| 20260508051745 | 46 | 88 | 0.0 | 0.0 | 0.00 | 0.00 | 0.00 | 81 | 1011.2 |
| 20260508051240 | 46 | 37 | 0.0 | 0.0 | 0.00 | 0.00 | 0.00 | 80 | 1011.3 |
| 20260508050737 | 47 | 74 | 0.0 | 0.0 | 0.00 | 0.00 | 0.00 | 79 | 1011.2 |
| 20260508050235 | 47 | 82 | 0.0 | 0.0 | 0.00 | 0.00 | 0.00 | 79 | 1011.2 |
| 20260508045730 | 47 | 48 | 0.0 | 0.0 | 0.00 | 0.00 | 0.00 | 79 | 1011.2 |
| 20260508045228 | 46 | 100 | 0.0 | 0.0 | 0.00 | 0.00 | 0.00 | 80 | 1011.0 |
| 20260508044725 | 46 | 42 | 0.0 | 0.0 | 0.00 | 0.00 | 0.00 | 82 | 1011.1 |
| 20260508044222 | 46 | 39 | 0.0 | 0.0 | 0.00 | 0.00 | 0.00 | 81 | 1011.1 |